User: anonymous   Login
Location: Unspecified
(0.0000°N, 0.0000°E)
Time: 20:17:11
(UTC+00:00)
Language:

STARLINK-30481 - Orbit

View from above orbital plane
View from above orbital plane
View from above satellite
View from above satellite

Ground track
Ground track

The orbit is defined by the following mean orbital elements,

1 57899U          26145.31356934 +.00000000 +00000-0 +45486-4 0 00004
2 57899  43.0062 241.5826 0001734 265.4488  94.6165 15.27578560    02
Epoch (UTC): 25 May 2026 07:31:32
Eccentricity: 0.0001734
inclination: 43.0062°
perigee height: 482 km
apogee height: 484 km
right ascension of ascending node: 241.5826°
argument of perigee: 265.4488°
revolutions per day: 15.27578560
mean anomaly at epoch: 94.6165°

The dashed part of the orbit path shows where the satellite is in the earth's shadow,  

DLR